Regional Weather Roundup
Issued by NWS

Home | Current Version | Previous Version | Text Only | Print | Product List | Glossary Off
Versions: 1 2 3 4 5 6 7 8 9 10 11 12 13 14 15 16 17 18 19 20 21 22 23 24 25 26 27 28 29 30 31 32 33 34 35 36 37 38 39 40 41 42 43 44 45 46 47 48 49 50

000
ASUS43 KMPX 171201
RWRMN
WEATHER ROUNDUP FOR MINNESOTA
NATIONAL WEATHER SERVICE TWIN CITIES/CHANHASSEN MN
600 AM CST FRI NOV 17 2017


NOTE: "FAIR" INDICATES FEW OR NO CLOUDS BELOW 12,000 FEET WITH NO
SIGNIFICANT WEATHER AND/OR OBSTRUCTIONS TO VISIBILITY. N/A MEANS
CURRENT SKY AND/OR WEATHER CONDITIONS ARE NOT AVAILABLE.

MNZ060>063-068>070-171300-
   Twin Cities Metro

CITY           SKY/WX    TMP DP  RH WIND       PRES   REMARKS
TWIN CITIES    CLOUDY    37  30  75 SE16G31   29.74F
6HR MIN TEMP:  34; 6HR MAX TEMP:  37;

ST PAUL        CLOUDY    36  30  79 SE16G29   29.76S
CRYSTAL        CLOUDY    37  27  67 S14G25    29.72S
BLAINE         CLOUDY    37  30  75 SE15G21   29.73R
LAKEVILLE      CLOUDY    34  30  86 SE15G21   29.74F WCI  24
EDEN PRAIRIE   CLOUDY    38  29  70 S18G26    29.71F
6HR MIN TEMP:  35; 6HR MAX TEMP:  38;

SOUTH ST PAUL  CLOUDY    37  30  76 S10G17    29.75S
LAKE ELMO      CLOUDY    36  30  80 SE16G23   29.77S
$$
MNZ001>005-007-008-013>017-022>024-027-028-171300-
   Northwest Minnesota

CITY           SKY/WX    TMP DP  RH WIND       PRES   REMARKS
BEMIDJI        CLOUDY    31  27  84 SE13      29.62F WCI  21
HALLOCK        CLOUDY    34  30  86 SW10      29.59R WCI  26
ROSEAU         CLOUDY    34  28  80 SW17      29.59R WCI  23
WARROAD        CLOUDY    34  28  80 SW7       29.58R WCI  28
CROOKSTON      CLOUDY    34  28  80 SW8       29.62R WCI  27
FOSSTON        CLOUDY    30  27  86 S9        29.61R WCI  22
DETROIT LAKES  CLOUDY    32  30  93 SE16      29.61F WCI  21
MOORHEAD       CLOUDY    36  28  75 S9        29.63R
PARK RAPIDS    CLOUDY    31  27  85 S3        29.66R
MAHNOMEN       CLOUDY    33  28  81 S9G17     29.60R WCI  25
$$
MNZ006-009>011-018-025>026-171300-
   North Central Minnesota

CITY           SKY/WX    TMP DP  RH WIND       PRES   REMARKS
BAUDETTE       CLOUDY    32  27  81 S13G29    29.57F WCI  22
FLAG ISLAND      N/A    N/A N/A N/A S15       29.56R
INTL FALLS     CLOUDY    32  25  75 S9G17     29.64F WCI  24
6HR MIN TEMP:  29; 6HR MAX TEMP:  32; 6HR PCP: TRACE;

WASKISH        CLOUDY    34  28  80 S14G20    29.60F WCI  24
BIG FORK       CLOUDY    34  27  75 S6        29.67F WCI  29
LONGVILLE      CLOUDY    32  28  86 SE8       29.66F WCI  25
GRAND RAPIDS   CLOUDY    32  27  81 SE9G17    29.70S WCI  24
CRANE LAKE     CLOUDY    30  27  86 S5        29.72F WCI  25
ORR            CLOUDY    30  25  80 S9        29.68S WCI  22
COOK           CLOUDY    30  27  86 S12       29.71S WCI  21
WALKER         PTSUNNY   32  27  81 S8        29.66S WCI  25
$$
MNZ012-019>021-037-171300-
   Northeast Minnesota

CITY           SKY/WX    TMP DP  RH WIND       PRES   REMARKS
DULUTH         CLOUDY    31  26  82 S9        29.73F WCI  23
6HR MIN TEMP:  28; 6HR MAX TEMP:  31; 6HR PCP: TRACE;

ELY            MOCLDY    30  27  86 S12G23    29.72F WCI  21
HIBBING        CLOUDY    30  25  81 SE8       29.71F WCI  22
EVELETH        CLOUDY    30  23  74 S7        29.74S WCI  23
DULUTH HARBOR  CLOUDY    36  28  75 S3        29.77F
TWO HARBORS    CLOUDY    36  28  75 SE6       29.74F
SILVER BAY     CLOUDY    34  28  80 SE7       29.76F WCI  28
GRAND MARAIS     N/A     38  31  76 S16       29.86F
G MARAIS ARPRT CLOUDY    28  25  86 SE9       29.80S WCI  20
$$
MNZ029>031-032-039>041-046>048-054>057-064-171300-
   West Central Minnesota

CITY           SKY/WX    TMP DP  RH WIND       PRES   REMARKS
FERGUS FALLS   CLOUDY    34  28  80 SE12      29.64F WCI  25
WHEATON        CLOUDY    32  28  86 SE10      29.62F WCI  24
MORRIS         CLOUDY    34  28  80 SE12      29.63S WCI  25
ALEXANDRIA     CLOUDY    34  29  82 S9        29.65S WCI  27
ELBOW LAKE     FAIR      33  29  86 E12       29.62F FOG     WCI  24
WADENA         CLOUDY    32  27  80 S6        29.66  WCI  26
GLENWOOD       CLOUDY    34  30  86 SE12      29.64F WCI  25
APPLETON       PTCLDY    34  28  80 E6        29.62S WCI  29
BENSON         CLOUDY    36  28  75 S13       29.64F
ORTONVILLE     CLOUDY    34  28  80 MISG      29.62R
MADISON        CLOUDY    36  30  80 SE6       29.61F
WILLMAR        FAIR      36  30  80 SE10      29.67S
$$
MNZ033>034-036-042>043-049>051-058-059-171300-
   Central Minnesota

CITY           SKY/WX    TMP DP  RH WIND       PRES   REMARKS
ST CLOUD       CLOUDY    36  29  75 SE12      29.69F
6HR MIN TEMP:  32; 6HR MAX TEMP:  36;

SAUK CENTRE    FAIR      33  29  87 SE10      29.66F WCI  24
PAYNESVILLE    CLOUDY    35  31  87 SE12G18   29.67F WCI  26
AITKIN         CLOUDY    32  27  80 S9        29.69R WCI  24
PINE RIVER     CLOUDY    30  27  86 S8        29.71S WCI  23
BRAINERD       CLOUDY    34  27  75 SE10      29.68S WCI  26
STAPLES        CLOUDY    32  27  80 SE6       29.67R WCI  26
LONG PRAIRIE   FAIR      32  28  86 E13G22    29.66F WCI  22
LITTLE FALLS   CLOUDY    34  25  69 SE9       29.68F WCI  26
LITCHFIELD     CLOUDY    37  30  75 SE10      29.68F
BUFFALO        CLOUDY    37  29  74 SE10G17   29.72F
MAPLE LAKE     CLOUDY    37  32  81 SE10G17   29.71F
HUTCHINSON     CLOUDY    37  31  81 SE10G17   29.69F
$$
MNZ037-044-045-052-053-171300-
   East Central Minnesota

CITY           SKY/WX    TMP DP  RH WIND       PRES   REMARKS
PRINCETON      CLOUDY    37  30  75 SE10      29.72F
MORA           CLOUDY    34  28  80 S10       29.75F WCI  26
CAMBRIDGE      DRIZZLE   36  30  80 SE12G18   29.74S
RUSH CITY      CLOUDY    34  28  79 S13       29.75S WCI  25
MOOSE LAKE     CLOUDY    34  28  80 S10       29.72F WCI  26
HINCKLEY       DRIZZLE   34  30  86 S9        29.75F WCI  26
CLOQUET        CLOUDY    34  27  75 S7        29.73F WCI  28
MCGREGOR       CLOUDY    32  28  86 S12G17    29.71S WCI  23
$$
MNZ071>073-080-081-089-090-097-098-171300-
   Southwest Minnesota

CITY           SKY/WX    TMP DP  RH WIND       PRES   REMARKS
MONTEVIDEO     CLOUDY    34  28  80 S8        29.62S WCI  27
GRANITE FALLS  CLOUDY    36  31  82 SE10      29.65S
CANBY          CLOUDY    37  32  83 S3        29.61S
MARSHALL       CLOUDY    36  31  82 SE9       29.61F
REDWOOD FALLS  CLOUDY    37  29  72 SE16      29.65F
OLIVIA         CLOUDY    36  32  87 S13       29.65S
PIPESTONE      CLOUDY    37  32  81 S10       29.58S
WINDOM           N/A     39  25  56 S18G29    29.61F
WORTHINGTON    CLOUDY    38  31  76 S21G29    29.61R
JACKSON        CLOUDY    37  32  81 S22G28    29.64S
SLAYTON        CLOUDY    39  33  81 S14G20    29.60R
$$
MNZ065>067-074>077-082>085-091>093-171300-
   South Central Minnesota

CITY           SKY/WX    TMP DP  RH WIND       PRES   REMARKS
MANKATO        CLOUDY    36  30  79 S20G25    29.70S
NEW ULM        CLOUDY    37  28  70 S14G22    29.68F
ST JAMES       CLOUDY    37  30  75 SE13G22   29.68R
FAIRMONT       CLOUDY    37  31  78 S25       29.65F
GLENCOE        CLOUDY    38  32  79 SE10G17   29.68F
FARIBAULT      CLOUDY    36  30  80 SE13G21   29.75R
OWATONNA       CLOUDY    34  30  86 SE23G31   29.73S WCI  22
WASECA         CLOUDY    36  32  87 SE20G29   29.73F
ALBERT LEA     CLOUDY    34  28  80 S18G25    29.75F WCI  23
$$
MNZ078>079-086>088-094>096-171300-
   Southeast Minnesota

CITY           SKY/WX    TMP DP  RH WIND       PRES   REMARKS
ROCHESTER      CLOUDY    33  29  85 S25G32    29.77F WCI  20
6HR MIN TEMP:  32; 6HR MAX TEMP:  33;

RED WING       CLOUDY    36  27  69 SE13G18   29.79F
STANTON        CLOUDY    37  30  77 S14G21    29.75S
DODGE CENTER   CLOUDY    32  28  86 SE21G28   29.74F WCI  20
WINONA         CLOUDY    36  30  80 SE13G20   29.85F
AUSTIN         CLOUDY    32  28  86 S13G20    29.77S WCI  22
PRESTON        CLOUDY    32  28  85 SE18G28   29.81F WCI  21
$$
ABBREVIATIONS USED IN REMARKS
   TC - TEMPERATURES IN CELSIUS
  WCI - WIND CHILL INDEX
   HX - HEAT INDEX
  VSB - VISIBILITY
$$



USA.gov is the U.S. government's official web portal to all federal, state and local government web resources and services.